Weather History for CWWA - February, 2013

Change the Weather History Date:

Thursday, February 28, 2013

  Actual Average Record
Temperature  
Mean Temperature 40 °F -  
Max Temperature 45 °F - - ()
Min Temperature 34 °F - - ()
Degree Days  
Heating Degree Days 26    
Moisture  
Dew Point 38 °F    
Average Humidity 93    
Maximum Humidity 96    
Minimum Humidity 87    
Precipitation  
Precipitation 0.31 in - - ()
Sea Level Pressure  
Sea Level Pressure 30.22 in    
Wind  
Wind Speed 2 mph ()    
Max Wind Speed 6 mph    
Max Gust Speed -    
T = Trace of Precipitation, MM = Missing Value Source: Averaged Metar Reports

Daily Weather History Graph

Daily Weather History Graph

Search for Another Location

Airport or City:

Trip Planner

Search our weather history database for the weather conditions in past years. The results will help you decide how hot, cold, wet, or windy it might be!

Date:

Astronomy

Feb. 28, 2013 Rise Set
Actual Time 6:56 AM PST 5:54 PM PST
Civil Twilight 6:24 AM PST 6:26 PM PST
Nautical Twilight 5:47 AM PST 7:03 PM PST
Astronomical Twilight 5:10 AM PST 7:40 PM PST
Moon 9:53 PM PST (2/28) 7:48 AM PST (2/28)
Length of Visible Light 12h 02m
Length of Day
10h 58m
Waning Gibbous, 90% of the Moon is Illuminated
Feb 28
Waning Gibbous
Mar 4
Last Quarter
Mar 11
New
Mar 19
First Quarter
Mar 27
Full

Hourly Weather History & Observations

Time (PST) Temp. Windchill Dew Point Humidity Pressure Visibility Wind Dir Wind Speed Gust Speed Precip Events Conditions
12:00 AM 35.6 °F - 33.3 °F 91% 30.27 in - NNE 2.3 mph - N/A   Unknown
1:00 AM 34.7 °F - 33.1 °F 94% 30.28 in - NW 1.2 mph - N/A   Unknown
2:00 AM 35.2 °F - 33.6 °F 94% 30.27 in - Calm Calm - N/A   Unknown
3:00 AM 34.9 °F - 33.1 °F 93% 30.25 in - NNE 1.2 mph - N/A   Unknown
4:00 AM 36 °F - 34 °F 91% 30.24 in - North 1.2 mph - -  
4:00 AM 36.0 °F - 34.3 °F 94% 30.24 in - North 1.2 mph - N/A   Unknown
5:00 AM 35.6 °F - 33.8 °F 93% 30.22 in - Calm Calm - N/A   Unknown
6:00 AM 37.0 °F - 34.7 °F 91% 30.22 in - Calm Calm - N/A   Unknown
7:00 AM 36.9 °F - 34.9 °F 93% 30.21 in - North 1.2 mph - N/A   Unknown
8:00 AM 37.6 °F - 35.4 °F 92% 30.20 in - WNW 1.2 mph - N/A   Unknown
9:00 AM 37.9 °F - 35.8 °F 92% 30.20 in - NW 1.2 mph - N/A   Unknown
10:00 AM 39 °F - 37 °F 91% 30.20 in - East 1.2 mph - -  
10:00 AM 38.8 °F - 37.2 °F 94% 30.20 in - East 1.2 mph - 0.05 in   Unknown
11:00 AM 38.5 °F - 37.2 °F 95% 30.20 in - Calm Calm - 0.07 in   Unknown
12:00 PM 38.5 °F - 37.4 °F 96% 30.21 in - South 1.2 mph - 0.09 in   Unknown
1:00 PM 39.6 °F - 38.5 °F 96% 30.21 in - SSE 1.2 mph - 0.05 in   Unknown
2:00 PM 41.2 °F - 40.1 °F 96% 30.22 in - ENE 2.3 mph - 0.02 in   Unknown
3:00 PM 42.4 °F 40.7 °F 40.5 °F 93% 30.21 in - East 3.5 mph - 0.02 in   Unknown
4:00 PM 43 °F - 40 °F 87% 30.22 in - ENE 4.6 mph - -  
5:00 PM 43.7 °F 42.1 °F 40.6 °F 89% 30.20 in - ENE 3.5 mph - 0.05 in   Unknown
6:00 PM 44.4 °F 41.2 °F 41.9 °F 91% 30.21 in - ENE 5.8 mph - N/A   Unknown
7:00 PM 44.2 °F 41.8 °F 42.6 °F 94% 30.22 in - NE 4.6 mph - 0.08 in   Unknown
8:00 PM 44.8 °F - 43.0 °F 93% 30.22 in - ENE 2.3 mph - 0.08 in   Unknown
9:00 PM 45.3 °F - 43.5 °F 93% 30.22 in - East 2.3 mph - 0.05 in   Unknown
10:00 PM 45 °F - 44 °F 92% 30.23 in - East 2.3 mph - -  
10:00 PM 45.1 °F - 43.5 °F 94% 30.23 in - East 2.3 mph - 0.01 in   Unknown
11:00 PM 45.9 °F 42.9 °F 44.2 °F 94% 30.22 in - ENE 5.8 mph - 0.01 in   Unknown